Current weather by "City, St" or "zip code"  
 

Current Conditions: Indianapolis International Airport, IN

A Few Clouds


62.0 F

Last Updated on Sep 18 2020, 12:54 pm EDT
Humidity: 43%
Wind Speed: NE 17.3 G 25.3 mph
Barometer 30.28 in
Dewpoint: 39.0 F
Visibility: 10.00 mi
Precip: --
Heat Index: NA
Wind Chill: 60 F
Current conditions at:

Indianapolis International Airport, IN (KIND)

Lat: 39.72518 Lon: 86.2816

Local Radar Image active severe weather and emergency alerts image image weather storm and storm spotter reports image weather observation monitoring service image
Local
Radar
Active
Alerts
Storm Reports Obs
Monitoring

Sign-up For Email & Text Message Weather Alert Notification Services



Advertise Here

Observation History for Indianapolis International Airport, IN


Time Wind
(mph)
Vis
(mi)
Weather Precip (in) Temperature (F) Relative
Humidity
Wind
Chill
(F)
Heat
Index
(F)
Pressure
Air Dwpt altimeter
(in)
sea level
(mb)
Rmks
12:54 pm EDT NE 17.3 G 25.3 10.00 A Few Clouds -- 62.0 39.0 43% 60 NA 30.28 1025.3
11:54 am EDT N 15.0 10.00 Partly Cloudy -- 62.0 41.0 46% 60 NA 30.30 1025.7
10:54 am EDT NE 13.8 10.00 A Few Clouds -- 59.0 41.0 51% 56 NA 30.29 1025.4
9:54 am EDT NE 11.5 10.00 Fair -- 56.0 43.0 62% 53 NA 30.26 1024.5
8:54 am EDT NE 12.7 10.00 Fair -- 54.0 45.0 72% 50 NA 30.23 1023.7
7:54 am EDT NE 12.7 10.00 A Few Clouds -- 52.0 45.0 77% 48 NA 30.20 1022.7
6:54 am EDT NE 10.4 10.00 Fair -- 52.0 45.0 77% 48 NA 30.18 1021.8
5:54 am EDT NE 10.4 10.00 Fair -- 54.0 46.0 75% 51 NA 30.16 1021.0
4:54 am EDT NE 12.7 10.00 Fair -- 55.0 45.0 69% 52 NA 30.14 1020.4
3:54 am EDT NE 13.8 10.00 Fair -- 56.0 46.0 70% 53 NA 30.13 1020.1
2:54 am EDT N 12.7 10.00 Fair -- 57.0 48.9 74% 54 NA 30.13 1019.8
1:54 am EDT N 9.2 10.00 Fair -- 58.0 50.0 75% 56 NA 30.12 1019.4
12:54 am EDT N 8.1 10.00 A Few Clouds -- 59.0 51.1 75% 58 NA 30.11 1019.2
11:54 pm EDT N 8.1 10.00 A Few Clouds -- 60.0 51.1 72% 59 NA 30.10 1018.8
10:54 pm EDT NE 8.1 10.00 A Few Clouds -- 62.0 51.1 67% 61 NA 30.08 1018.3
9:54 pm EDT NE 10.4 10.00 A Few Clouds -- 63.0 52.0 68% 62 NA 30.08 1018.2
8:54 pm EDT NE 11.5 10.00 Partly Cloudy -- 65.0 55.0 70% NA NA 30.06 1017.7
7:54 pm EDT NE 17.3 10.00 Overcast -- 68.0 57.0 68% NA NA 30.04 1017.0
6:54 pm EDT N 17.3 10.00 Mostly Cloudy -- 70.0 57.0 64% NA NA 30.03 1016.5
5:54 pm EDT NE 12.7 10.00 Partly Cloudy -- 73.0 57.9 59% NA NA 30.01 1016.0
4:54 pm EDT N 15.0 10.00 Partly Cloudy -- 76.0 59.0 56% NA NA 30.00 1015.7
3:54 pm EDT NE 12.7 10.00 Mostly Cloudy -- 76.0 59.0 56% NA NA 30.01 1015.7
2:54 pm EDT N 11.5 10.00 Mostly Cloudy -- 78.0 57.0 48% NA NA 30.01 1015.8
1:54 pm EDT N 8.1 10.00 A Few Clouds -- 78.0 57.0 48% NA NA 30.03 1016.3

Regional Weather Observation


Indianapolis International Airport, IN (KIND)

A Few Clouds
62.0 F

INDIANAPOLIS, IN (KTYQ)

Fair
61.0 F

Lafayette, Purdue University Airport, IN (KLAF)

Fair
66.0 F

Kokomo, Kokomo Municipal Airport, IN (KOKK)

Fair
62.0 F

Bloomington, Monroe County Airport, IN (KBMG)

Fair
67.0 F

Grissom Air Force Base / Peru, IN (KGUS)

Fair
61.0 F